Stündliche Wetter Bolshie Ivanischi

Heute, 11 April, Sonntag

Zeit Temperatur Niederschläge Wind Luftdruck Luftfeuchtigkeit
00:00 +3°C° 0 mm 4 m/S 755 mmHg 74%
01:00 +1°C° 0 mm 4 m/S 755 mmHg 75%
02:00 +1°C° 0 mm 4 m/S 755 mmHg 77%
03:00 +2°C° 0 mm 3 m/S 755 mmHg 80%
04:00 +1°C° 0 mm 3 m/S 756 mmHg 83%
05:00 +2°C° 0 mm 2 m/S 756 mmHg 86%
06:00 +1°C° 0 mm 2 m/S 757 mmHg 89%
07:00 +3°C° 0 mm 2 m/S 757 mmHg 85%
08:00 +4°C° 0 mm 2 m/S 758 mmHg 81%
09:00 +6°C° 0 mm 2 m/S 758 mmHg 77%
10:00 +7°C° 0 mm 2 m/S 759 mmHg 74%
11:00 +8°C° 0 mm 2 m/S 759 mmHg 71%
12:00 +9°C° 0 mm 2 m/S 759 mmHg 68%
13:00 +10°C° 0 mm 2 m/S 759 mmHg 68%
14:00 +11°C° 0 mm 1 m/S 760 mmHg 67%
15:00 +12°C° 0 mm 1 m/S 760 mmHg 67%
16:00 +11°C° 0 mm 1 m/S 760 mmHg 71%
17:00 +10°C° 0 mm 1 m/S 760 mmHg 76%
18:00 +10°C° 0 mm 1 m/S 761 mmHg 80%
19:00 +8°C° 0 mm 2 m/S 761 mmHg 82%
20:00 +8°C° 0 mm 2 m/S 761 mmHg 84%
21:00 +7°C° 0 mm 2 m/S 762 mmHg 86%
22:00 +7°C° 0 mm 2 m/S 762 mmHg 85%
23:00 +7°C° 0 mm 2 m/S 762 mmHg 85%

Morgen, 12 April, Montag

Zeit Temperatur Niederschläge Wind Luftdruck Luftfeuchtigkeit
00:00 +7°C° 0 mm 2 m/S 762 mmHg 85%
01:00 +7°C° 0 mm 2 m/S 763 mmHg 84%
02:00 +6°C° 0 mm 2 m/S 763 mmHg 83%
03:00 +6°C° 0 mm 2 m/S 763 mmHg 82%
04:00 +6°C° 0 mm 2 m/S 763 mmHg 82%
05:00 +5°C° 0 mm 2 m/S 763 mmHg 82%
06:00 +5°C° 0 mm 2 m/S 763 mmHg 82%
07:00 +6°C° 0 mm 2 m/S 764 mmHg 77%
08:00 +8°C° 0 mm 3 m/S 764 mmHg 71%
09:00 +10°C° 0 mm 3 m/S 764 mmHg 65%
10:00 +11°C° 0 mm 4 m/S 763 mmHg 62%
11:00 +12°C° 0 mm 4 m/S 763 mmHg 58%
12:00 +13°C° 0 mm 4 m/S 763 mmHg 54%
13:00 +14°C° 0 mm 5 m/S 763 mmHg 54%
14:00 +14°C° 0 mm 5 m/S 762 mmHg 54%
15:00 +14°C° 0 mm 5 m/S 762 mmHg 54%
16:00 +13°C° 0 mm 5 m/S 761 mmHg 58%
17:00 +13°C° 0 mm 5 m/S 761 mmHg 62%
18:00 +12°C° 0 mm 5 m/S 760 mmHg 66%
19:00 +11°C° 0 mm 4 m/S 760 mmHg 69%
20:00 +10°C° 0 mm 4 m/S 760 mmHg 72%
21:00 +8°C° 0 mm 4 m/S 760 mmHg 74%
22:00 +7°C° 0 mm 4 m/S 760 mmHg 77%
23:00 +7°C° 0 mm 4 m/S 760 mmHg 80%

übermorgen, 13 April, Dienstag

Zeit Temperatur Niederschläge Wind Luftdruck Luftfeuchtigkeit
00:00 +7°C° 0 mm 3 m/S 759 mmHg 83%
01:00 +7°C° 0 mm 3 m/S 759 mmHg 87%
02:00 +5°C° 0 mm 3 m/S 759 mmHg 90%
03:00 +6°C° 0 mm 2 m/S 758 mmHg 94%
04:00 +6°C° 0 mm 2 m/S 758 mmHg 94%
05:00 +6°C° 0 mm 2 m/S 758 mmHg 95%
06:00 +5°C° 0 mm 2 m/S 758 mmHg 96%
07:00 +7°C° 0 mm 2 m/S 757 mmHg 90%
08:00 +9°C° 0 mm 2 m/S 757 mmHg 85%
09:00 +10°C° 0 mm 3 m/S 757 mmHg 79%
10:00 +12°C° 0 mm 3 m/S 757 mmHg 71%
11:00 +14°C° 0 mm 3 m/S 757 mmHg 64%
12:00 +17°C° 0 mm 4 m/S 756 mmHg 56%
13:00 +17°C° 0 mm 4 m/S 756 mmHg 54%
14:00 +18°C° 0 mm 4 m/S 756 mmHg 52%
15:00 +19°C° 0 mm 4 m/S 756 mmHg 49%
16:00 +18°C° 0 mm 4 m/S 756 mmHg 53%
17:00 +18°C° 0 mm 3 m/S 755 mmHg 56%
18:00 +17°C° 0 mm 3 m/S 755 mmHg 60%
19:00 +14°C° 0 mm 3 m/S 755 mmHg 63%
20:00 +13°C° 0 mm 3 m/S 755 mmHg 67%
21:00 +12°C° 0 mm 3 m/S 755 mmHg 71%
22:00 +11°C° 0 mm 3 m/S 755 mmHg 72%
23:00 +11°C° 0 mm 3 m/S 755 mmHg 74%

14 April, Mittwoch

Zeit Temperatur Niederschläge Wind Luftdruck Luftfeuchtigkeit
00:00 +10°C° 0 mm 3 m/S 755 mmHg 76%
01:00 +10°C° 0 mm 3 m/S 755 mmHg 76%
02:00 +9°C° 0 mm 3 m/S 755 mmHg 76%
03:00 +9°C° 0 mm 3 m/S 755 mmHg 76%
04:00 +8°C° 0 mm 2 m/S 755 mmHg 76%
05:00 +8°C° 0 mm 2 m/S 755 mmHg 75%
06:00 +8°C° 0 mm 2 m/S 754 mmHg 75%
07:00 +10°C° 0 mm 3 m/S 754 mmHg 69%
08:00 +12°C° 0 mm 3 m/S 754 mmHg 63%
09:00 +14°C° 0 mm 4 m/S 754 mmHg 57%
10:00 +15°C° 0 mm 4 m/S 754 mmHg 54%
11:00 +17°C° 0 mm 4 m/S 754 mmHg 50%
12:00 +19°C° 0 mm 5 m/S 754 mmHg 47%
13:00 +19°C° 0 mm 4 m/S 753 mmHg 46%
14:00 +19°C° 0 mm 4 m/S 753 mmHg 45%
15:00 +20°C° 0 mm 4 m/S 753 mmHg 44%
16:00 +19°C° 0 mm 4 m/S 753 mmHg 48%
17:00 +18°C° 0 mm 3 m/S 753 mmHg 51%
18:00 +17°C° 0 mm 2 m/S 752 mmHg 55%
19:00 +16°C° 0 mm 2 m/S 753 mmHg 59%
20:00 +13°C° 0 mm 3 m/S 753 mmHg 62%
21:00 +12°C° 0 mm 3 m/S 753 mmHg 66%
22:00 +12°C° 0 mm 2 m/S 752 mmHg 68%
23:00 +10°C° 0 mm 2 m/S 752 mmHg 69%

15 April, Donnerstag

Zeit Temperatur Niederschläge Wind Luftdruck Luftfeuchtigkeit
00:00 +10°C° 0 mm 2 m/S 752 mmHg 71%
01:00 +9°C° 0 mm 2 m/S 752 mmHg 75%
02:00 +8°C° 0 mm 2 m/S 752 mmHg 79%
03:00 +7°C° 0 mm 2 m/S 752 mmHg 82%
04:00 +6°C° 0 mm 2 m/S 752 mmHg 85%
05:00 +5°C° 0 mm 3 m/S 752 mmHg 88%
06:00 +4°C° 0 mm 3 m/S 753 mmHg 91%
07:00 +5°C° 0 mm 3 m/S 753 mmHg 88%
08:00 +5°C° 0 mm 4 m/S 753 mmHg 84%
09:00 +6°C° 0 mm 4 m/S 753 mmHg 81%
10:00 +6°C° 0 mm 4 m/S 753 mmHg 79%
11:00 +6°C° 0 mm 4 m/S 753 mmHg 77%
12:00 +7°C° 0 mm 4 m/S 753 mmHg 75%
13:00 +7°C° 0 mm 5 m/S 753 mmHg 75%
14:00 +7°C° 0 mm 5 m/S 753 mmHg 75%
15:00 +7°C° 0 mm 5 m/S 754 mmHg 75%
16:00 +5°C° 0 mm 5 m/S 754 mmHg 80%
17:00 +3°C° 0 mm 5 m/S 754 mmHg 84%
18:00 +2°C° 0 mm 5 m/S 755 mmHg 88%
19:00 +2°C° 0.2 mm 5 m/S 755 mmHg 88%
20:00 +2°C° 0.2 mm 5 m/S 755 mmHg 88%
21:00 +2°C° 0.2 mm 5 m/S 756 mmHg 88%
22:00 +1°C° 0 mm 5 m/S 756 mmHg 82%
23:00 +1°C° 0 mm 5 m/S 756 mmHg 77%

16 April, Freitag

Zeit Temperatur Niederschläge Wind Luftdruck Luftfeuchtigkeit
00:00 +1°C° 0 mm 5 m/S 757 mmHg 71%
01:00 0°C° 0 mm 5 m/S 757 mmHg 72%
02:00 0°C° 0 mm 5 m/S 757 mmHg 73%
03:00 -1°C° 0 mm 5 m/S 757 mmHg 75%
04:00 -1°C° 0 mm 5 m/S 758 mmHg 76%
05:00 -2°C° 0 mm 5 m/S 758 mmHg 77%
06:00 -2°C° 0 mm 5 m/S 759 mmHg 79%
07:00 -1°C° 0 mm 5 m/S 759 mmHg 72%
08:00 -1°C° 0 mm 6 m/S 759 mmHg 64%
09:00 +2°C° 0 mm 6 m/S 760 mmHg 57%
10:00 +3°C° 0 mm 6 m/S 760 mmHg 52%
11:00 +4°C° 0 mm 6 m/S 760 mmHg 46%
12:00 +5°C° 0 mm 6 m/S 761 mmHg 40%
13:00 +5°C° 0 mm 6 m/S 761 mmHg 39%
14:00 +5°C° 0 mm 6 m/S 761 mmHg 37%
15:00 +5°C° 0 mm 6 m/S 761 mmHg 36%
16:00 +5°C° 0 mm 6 m/S 761 mmHg 39%
17:00 +5°C° 0 mm 5 m/S 761 mmHg 42%
18:00 +5°C° 0 mm 5 m/S 761 mmHg 45%
19:00 +4°C° 0 mm 4 m/S 762 mmHg 50%
20:00 +1°C° 0 mm 4 m/S 762 mmHg 56%
21:00 +1°C° 0 mm 3 m/S 762 mmHg 62%
22:00 0°C° 0 mm 3 m/S 762 mmHg 65%
23:00 +1°C° 0 mm 2 m/S 763 mmHg 69%
Mehr zeigen

Wir brauchen deine Erlaubnis

Meteoprog und unser Service Anbieter werden persönliche Daten aufbewahren, so wie Cookies, Geräte Bezeichnung oder ähnliche Technologien von deinem Gerät und Prozess, so wie Persönliche Daten Inhalte und Werbungen, genauso wie social Media und den Verkehr zu analysieren.

  • Aufbewahrung und/oder Zugang zu deiner Geräte Informationen.

    Cookies, Geräte Bezeichnung oder andere Informationen, können aufbewahrt oder Zugang zu deinem Gerät erhalten, für den Grund, der oben angegeben wird.

  • Personalisierte Werbung und Inhalte, Messungen, Einblick in das Publikum und Produkt Entwicklung.

    Werbungen und Inhalte können personalisiert werden, basierend auf ein Profil. Mehr Daten können besser personalisierte Werbungen und Inhalte hinzufügen. Werbung und Inhalte können gezeigt und gemessen werden. Einblicke über das Publikum, welche die Werbung gesehen haben und den Inhalt, können abgeleitet werden. So wie Daten können genutzt werden, um es zu verbessern oder die Benutzer Erfahrung zu verbessern das System und die Software.

Wenn du “Ich stimme zu” klickst, erlaubst du uns, die Cookies zu benutzen die Geräte Bezeichnung, den Web oder ähnliche Technologien zu benutzen. Deine Settings, können in deinem Gerät bei deinem Browser geändert werden.

Für den bestimmten Zweck, berechtigten Interessen beruhen darauf, mehr als auf den Inhalt. Du kannst mehr darüber in unseren Privaten und Cookie Politik lesen.